Regional Weather Roundup
Issued by NWS

Home | Current Version | Previous Version | Graphics & Text | Print | Product List | Glossary On
Versions: 1 2 3 4 5 6 7 8 9 10 11 12 13 14 15 16 17 18 19 20 21 22 23 24 25 26 27 28 29 30 31 32 33 34 35 36 37 38 39 40 41 42 43 44 45 46 47 48 49 50
000
ASUS43 KMPX 292301
RWRMN
WEATHER ROUNDUP FOR MINNESOTA
NATIONAL WEATHER SERVICE TWIN CITIES/CHANHASSEN MN
600 PM CDT SUN MAY 29 2016


NOTE: "FAIR" INDICATES FEW OR NO CLOUDS BELOW 12,000 FEET WITH NO
SIGNIFICANT WEATHER AND/OR OBSTRUCTIONS TO VISIBILITY. N/A MEANS
CURRENT SKY AND/OR WEATHER CONDITIONS ARE NOT AVAILABLE.

MNZ060>063-068>070-300000-
   Twin Cities Metro

CITY           SKY/WX    TMP DP  RH WIND       PRES   REMARKS
TWIN CITIES    MOSUNNY   78  55  44 W10       29.93S
ST PAUL        MOSUNNY   77  57  50 NW12      29.93S
CRYSTAL        MOSUNNY   77  55  46 W8        29.92S
BLAINE         PTSUNNY   77  57  50 W14       29.93F
EDEN PRAIRIE   MOSUNNY   75  53  46 W10G17    29.93S
SOUTH ST PAUL  SUNNY     78  53  42 W12       29.92F
LAKE ELMO      FAIR      75  57  53 NW10      29.94S
$$
MNZ001>005-007-008-013>017-022>024-027-028-300000-
   Northwest Minnesota

CITY           SKY/WX    TMP DP  RH WIND       PRES   REMARKS
BEMIDJI        MOSUNNY   69  49  49 W12       29.93S
HALLOCK        SUNNY     73  48  40 NW12      29.89F
ROSEAU         SUNNY     70  54  56 W10G20    29.89S
WARROAD        MOSUNNY   68  57  68 W10       29.89S
THIEF RVR FALL SUNNY     70  52  52 W14G20    29.93S
CROOKSTON      MOSUNNY   73  52  46 N9        29.91F
FOSSTON        MOSUNNY   72  52  49 W10       29.94S
DETROIT LAKES  SUNNY     70  50  49 NW13      29.96S
MOORHEAD       SUNNY     73  46  38 NW12      29.93F
PARK RAPIDS    MOSUNNY   72  51  47 NW13G22   29.94F
MAHNOMEN       FAIR      70  55  59 W14       29.94S
$$
MNZ006-009>011-018-025>026-300000-
   North Central Minnesota

CITY           SKY/WX    TMP DP  RH WIND       PRES   REMARKS
BAUDETTE       MOSUNNY   67  54  63 W12       29.88
FLAG ISLAND    PTSUNNY   64  54  68 NW10      29.86S
INTL FALLS     CLOUDY    66  55  67 W9        29.87F
WASKISH        SUNNY     70  57  64 SW9       29.90S
BIG FORK       MOSUNNY   70  54  56 W7        29.90S
LONGVILLE      CLOUDY    68  54  60 NW5       29.93S
GRAND RAPIDS   MOSUNNY   67  54  63 SW8       29.93F
CRANE LAKE     PTSUNNY   63  55  77 CALM      29.90R
ORR            PTSUNNY   64  54  68 NW5       29.87S
COOK           CLOUDY    64  55  72 W8        29.90R
WALKER         MOCLDY    69  53  57 W14       29.92F
$$
MNZ012-019>021-037-300000-
   Northeast Minnesota

CITY           SKY/WX    TMP DP  RH WIND       PRES   REMARKS
DULUTH         MOSUNNY   69  52  54 NW15G24   29.90R
ELY            PTSUNNY   63  54  72 W10       29.88R
HIBBING        PTSUNNY   67  54  63 W12G17    29.90F
EVELETH        PTSUNNY   66  52  59 W12G18    29.91S
DULUTH HARBOR  SUNNY     70  55  60 W16       29.88S
TWO HARBORS      N/A     72  61  68 W10G18    29.85F
SILVER BAY     MOSUNNY   68  55  64 NW5       29.84S
GRAND MARAIS     N/A     64  53  67 SW10G16   29.80R
G MARAIS ARPRT CLOUDY    61  52  72 W9G23     29.84R
$$
MNZ029>031-032-039>041-046>048-054>057-064-300000-
   West Central Minnesota

CITY           SKY/WX    TMP DP  RH WIND       PRES   REMARKS
FERGUS FALLS   MOSUNNY   75  46  35 NW15G23   29.91S
WHEATON        SUNNY     81  46  30 W15       29.96F
MORRIS         SUNNY     75  46  35 NW16G23   29.95S
ALEXANDRIA     PTSUNNY   74  50  42 NW12      29.97S
ELBOW LAKE     FAIR      74  47  37 NW16      29.96S
WADENA         PTSUNNY   72  52  49 N10       29.94S
GLENWOOD       SUNNY     73  46  38 W16G24    29.97S
APPLETON       SUNNY     81  37  21 NW15G24   29.95F
ORTONVILLE     SUNNY     79  41  25 NW13      29.96F
MADISON        SUNNY     79  41  25 NW17      29.97S
WILLMAR        FAIR      79  45  29 NW15G23   29.97S
$$
MNZ033>034-036-042>043-049>051-058-059-300000-
   Central Minnesota

CITY           SKY/WX    TMP DP  RH WIND       PRES   REMARKS
ST CLOUD       SUNNY     76  52  43 W17G23    29.94S
SAUK CENTRE    FAIR      73  54  51 W15       29.96S
PAYNESVILLE    MOSUNNY   76  52  42 W15       29.97R
AITKIN         MOSUNNY   73  48  40 W7        29.91S
PINE RIVER     PTSUNNY   70  54  56 W12       29.96F
BRAINERD       MOSUNNY   72  51  47 NW13      29.93S
STAPLES        PTSUNNY   73  50  43 NW12G18   29.94S
LONG PRAIRIE   PTSUNNY   73  50  43 SW9G17    29.95F
LITTLE FALLS   MOSUNNY   72  50  46 NW9       29.94S
LITCHFIELD     CLOUDY    73  57  56 W3        29.96S
BUFFALO        PTSUNNY   74  55  50 W8        29.95S
MAPLE LAKE     CLOUDY    74  59  59 NW9       29.95S
HUTCHINSON     MOSUNNY   74  60  63 CALM      29.97F
$$
MNZ037-044-045-052-053-300000-
   East Central Minnesota

CITY           SKY/WX    TMP DP  RH WIND       PRES   REMARKS
PRINCETON      MOSUNNY   77  55  47 W12G18    29.94S
MORA           MOSUNNY   70  54  56 N7        29.94S
CAMBRIDGE        N/A     77  57  50 SW6       29.92S
RUSH CITY      MOSUNNY   74  55  51 W5        29.92S
MOOSE LAKE     SUNNY     72  52  49 W12G24    29.90R
HINCKLEY       FAIR      73  55  53 W12G17    29.92S
CLOQUET        MOSUNNY   70  52  52 W14G20    29.91R
MCGREGOR       SUNNY     70  54  56 NW10      29.93S
$$
MNZ071>073-080-081-089-090-097-098-300000-
   Southwest Minnesota

CITY           SKY/WX    TMP DP  RH WIND       PRES   REMARKS
MONTEVIDEO     SUNNY     81  45  28 N16       29.98F
GRANITE FALLS  MOSUNNY   82  47  28 W15G23    29.98S
CANBY          SUNNY     80  46  30 W13G21    29.99F
MARSHALL       SUNNY     78  47  33 NW15G24   29.98S
REDWOOD FALLS  SUNNY     79  45  29 NW13G21   29.95F
OLIVIA         MOSUNNY   72  45  37 NW13G18   29.95F
PIPESTONE      SUNNY     77  43  29 NW10G21   30.02S
WINDOM         SUNNY     77  43  29 NW16G23   30.00S
WORTHINGTON    SUNNY     76  47  35 NW15      30.02F
JACKSON        SUNNY     79  41  25 W16       30.01S
TRACY          SUNNY     78  49  36 NW17      30.00S
SLAYTON        SUNNY     76  43  30 NW12      30.02S
$$
MNZ065>067-074>077-082>085-091>093-300000-
   South Central Minnesota

CITY           SKY/WX    TMP DP  RH WIND       PRES   REMARKS
MANKATO        MOSUNNY   77  54  44 W14G22    29.96S
NEW ULM        MOSUNNY   75  54  46 NW9       29.96S
ST JAMES       SUNNY     72  48  43 W14G20    29.98S
FAIRMONT       SUNNY     77  48  36 W14G25    29.98S
GLENCOE        CLOUDY    70  62  77 NW5       29.95S
OWATONNA       SUNNY     75  57  53 W5        29.97S
WASECA         MOSUNNY   77  52  41 W16       29.98S
ALBERT LEA     MOSUNNY   79  54  41 W9        29.97F
$$
MNZ078>079-086>088-094>096-300000-
   Southeast Minnesota

CITY           SKY/WX    TMP DP  RH WIND       PRES   REMARKS
ROCHESTER      SUNNY     74  61  63 NW13      29.98S
RED WING       PTSUNNY   77  55  47 W8        29.92S
STANTON        CLOUDY    77  58  51 W10       29.94F
DODGE CENTER   SUNNY     75  57  53 NW10      29.98S
WINONA         PTSUNNY   73  55  53 W8        29.95S
AUSTIN         CLOUDY    75  55  50 NW14      29.97F
PRESTON        CLOUDY    74  55  51 W14       29.98S
$$
ABBREVIATIONS USED IN REMARKS
   TC - TEMPERATURES IN CELSIUS
  WCI - WIND CHILL INDEX
   HX - HEAT INDEX
  VSB - VISIBILITY
$$




USA.gov is the U.S. government's official web portal to all federal, state and local government web resources and services.